Wayne, NE

12:35 PM CDT on June 23, 2017 (GMT -0500)
Wayne Municipal

Weather History for KLCG - November, 2012

Change the Weather History Date:

Tuesday, November 6, 2012

  Actual Average (KOFK) Record (KOFK)
Temperature  
Mean Temperature 42 °F -  
Max Temperature 55 °F 50 °F 82 °F (1914)
Min Temperature 30 °F 27 °F -3 °F (1991)
Degree Days  
Heating Degree Days 22    
Moisture  
Dew Point 31 °F    
Average Humidity 65    
Maximum Humidity 92    
Minimum Humidity 35    
Precipitation  
Precipitation 0.00 in - - ()
Sea Level Pressure  
Sea Level Pressure 30.01 in    
Wind  
Wind Speed 15 mph (NW)    
Max Wind Speed 30 mph    
Max Gust Speed 37 mph    
Visibility 10 miles    
Events      
Averages and records for this station are not official NWS values.
T = Trace of Precipitation, MM = Missing Value Source: NWS Daily Summary

Daily Weather History Graph

Daily Weather History Graph

Search for Another Location

Airport or City:

Trip Planner

Search our weather history database for the weather conditions in past years. The results will help you decide how hot, cold, wet, or windy it might be!

Date:

Astronomy

Nov. 06, 2012 Rise Set
Actual Time 7:07 AM CST 5:14 PM CST
Civil Twilight 6:38 AM CST 5:44 PM CST
Nautical Twilight 6:04 AM CST 6:17 PM CST
Astronomical Twilight 5:32 AM CST 6:50 PM CST
Moon 11:56 PM CST (11/6) 12:59 PM CST (11/6)
Length of Visible Light 11h 05m
Length of Day
10h 06m
Waning Gibbous, 53% of the Moon is Illuminated
Nov 6
Waning Gibbous
Nov 6
Last Quarter
Nov 13
New
Nov 20
First Quarter
Nov 28
Full

Hourly Weather History & Observations

Time (CST) Temp. Windchill Dew Point Humidity Pressure Visibility Wind Dir Wind Speed Gust Speed Precip Events Conditions
12:15 AM 36.5 °F 29.2 °F 34.3 °F 92% 29.98 in 7.0 mi South 10.4 mph - N/A   Mostly Cloudy
12:35 AM 37.6 °F 30.0 °F 35.1 °F 91% 29.98 in 7.0 mi SSW 11.5 mph - N/A   Overcast
12:55 AM 38.1 °F 29.5 °F 35.1 °F 89% 29.97 in 7.0 mi SSW 15.0 mph - N/A   Overcast
1:15 AM 38.3 °F 29.3 °F 35.2 °F 89% 29.95 in 7.0 mi SSW 16.1 mph - N/A   Drizzle
1:35 AM 37.9 °F 29.2 °F 35.2 °F 90% 29.94 in 7.0 mi SSW 15.0 mph - N/A   Mostly Cloudy
1:55 AM 37.8 °F 28.6 °F 35.1 °F 90% 29.93 in 7.0 mi SSW 16.1 mph 21.9 mph N/A   Scattered Clouds
2:15 AM 37.8 °F 28.6 °F 35.2 °F 91% 29.92 in 10.0 mi SSW 16.1 mph 24.2 mph N/A   Clear
2:35 AM 38.5 °F 29.6 °F 35.6 °F 89% 29.92 in 10.0 mi SW 16.1 mph 24.2 mph N/A   Scattered Clouds
2:55 AM 38.7 °F 29.5 °F 35.2 °F 87% 29.91 in 10.0 mi SW 17.3 mph 24.2 mph N/A   Scattered Clouds
3:15 AM 38.8 °F 30.8 °F 35.2 °F 87% 29.91 in 10.0 mi WSW 13.8 mph - N/A   Clear
3:35 AM 39.2 °F 30.8 °F 35.6 °F 87% 29.91 in 10.0 mi WSW 15.0 mph - N/A   Clear
3:55 AM 39.4 °F 31.8 °F 35.6 °F 86% 29.90 in 10.0 mi WSW 12.7 mph - N/A   Clear
4:15 AM 40.6 °F 33.0 °F 36.5 °F 85% 29.90 in 10.0 mi West 13.8 mph - N/A   Clear
4:35 AM 42.1 °F 34.5 °F 37.8 °F 85% 29.92 in 10.0 mi WNW 15.0 mph - N/A   Clear
4:55 AM 43.9 °F 36.8 °F 39.2 °F 84% 29.92 in 10.0 mi NW 15.0 mph - N/A   Scattered Clouds
5:15 AM 43.9 °F 35.9 °F 39.7 °F 85% 29.93 in 10.0 mi NW 18.4 mph 24.2 mph N/A   Clear
5:35 AM 43.7 °F 35.4 °F 39.0 °F 84% 29.94 in 10.0 mi NW 19.6 mph 25.3 mph N/A   Clear
5:55 AM 43.0 °F 35.7 °F 37.9 °F 82% 29.96 in 10.0 mi NW 15.0 mph - N/A   Clear
6:15 AM 42.4 °F 35.0 °F 36.7 °F 80% 29.96 in 10.0 mi NW 15.0 mph 25.3 mph N/A   Clear
6:35 AM 41.2 °F 34.5 °F 35.8 °F 81% 29.97 in 10.0 mi NW 11.5 mph - N/A   Clear
6:55 AM 41.0 °F 33.9 °F 34.9 °F 79% 29.98 in 10.0 mi NW 12.7 mph 19.6 mph N/A   Clear
7:15 AM 39.6 °F 33.0 °F 34.2 °F 81% 30.00 in 10.0 mi NW 10.4 mph - N/A   Clear
7:35 AM 40.1 °F 32.7 °F 34.0 °F 79% 30.00 in 10.0 mi NW 12.7 mph 17.3 mph N/A   Clear
7:55 AM 41.0 °F 33.5 °F 34.0 °F 76% 30.02 in 10.0 mi NW 13.8 mph 19.6 mph N/A   Clear
8:15 AM 41.9 °F 35.0 °F 34.0 °F 73% 30.03 in 10.0 mi NW 12.7 mph 20.7 mph N/A   Clear
8:35 AM 43.3 °F 36.5 °F 33.8 °F 69% 30.03 in 10.0 mi NW 13.8 mph 20.7 mph N/A   Clear
8:55 AM 44.8 °F 37.4 °F 33.8 °F 65% 30.03 in 10.0 mi NW 17.3 mph 24.2 mph N/A   Clear
9:15 AM 46.0 °F 38.3 °F 33.1 °F 61% 30.03 in 10.0 mi NW 20.7 mph 27.6 mph N/A   Clear
9:55 AM 47.7 °F - 31.5 °F 53% 30.03 in 10.0 mi NW 25.3 mph 36.8 mph N/A   Clear
10:15 AM 48.9 °F - 31.5 °F 51% 30.03 in 10.0 mi NW 21.9 mph 32.2 mph N/A   Clear
10:35 AM 49.6 °F - 30.7 °F 48% 30.03 in 10.0 mi NNW 19.6 mph 34.5 mph N/A   Clear
10:55 AM 50.4 °F - 30.7 °F 47% 30.03 in 10.0 mi NW 25.3 mph 34.5 mph N/A   Clear
11:15 AM 50.9 °F - 29.7 °F 44% 30.03 in 10.0 mi NW 25.3 mph 33.4 mph N/A   Clear
11:35 AM 52.3 °F - 29.7 °F 42% 30.02 in 10.0 mi NNW 24.2 mph 34.5 mph N/A   Clear
11:55 AM 52.3 °F - 28.6 °F 40% 30.01 in 10.0 mi NW 27.6 mph 36.8 mph N/A   Clear
12:15 PM 52.7 °F - 28.9 °F 40% 30.00 in 10.0 mi NW 24.2 mph 36.8 mph N/A   Clear
12:35 PM 53.4 °F - 29.1 °F 39% 30.00 in 10.0 mi NW 25.3 mph 34.5 mph N/A   Clear
12:55 PM 53.8 °F - 28.8 °F 38% 30.00 in 10.0 mi NNW 29.9 mph 36.8 mph N/A   Clear
1:15 PM 54.3 °F - 28.9 °F 38% 30.00 in 10.0 mi NW 28.8 mph 33.4 mph N/A   Clear
1:35 PM 54.1 °F - 29.1 °F 38% 30.00 in 10.0 mi NW 20.7 mph 33.4 mph N/A   Clear
1:55 PM 54.3 °F - 29.1 °F 38% 30.00 in 10.0 mi NNW 26.5 mph 33.4 mph N/A   Scattered Clouds
2:15 PM 54.9 °F - 28.9 °F 37% 30.00 in 10.0 mi NNW 26.5 mph 31.1 mph N/A   Scattered Clouds
2:35 PM 54.3 °F - 28.8 °F 38% 30.00 in 10.0 mi NW 25.3 mph 34.5 mph N/A   Scattered Clouds
2:55 PM 55.0 °F - 28.6 °F 36% 30.00 in 10.0 mi NNW 25.3 mph 32.2 mph N/A   Scattered Clouds
3:15 PM 55.0 °F - 28.4 °F 36% 30.00 in 10.0 mi NW 26.5 mph 34.5 mph N/A   Scattered Clouds
3:35 PM 54.9 °F - 28.0 °F 36% 30.01 in 10.0 mi NW 28.8 mph 34.5 mph N/A   Scattered Clouds
3:55 PM 54.9 °F - 27.9 °F 35% 30.01 in 10.0 mi NNW 21.9 mph 29.9 mph N/A   Scattered Clouds
4:15 PM 54.0 °F - 28.2 °F 37% 30.02 in 10.0 mi NNW 16.1 mph 28.8 mph N/A   Clear
4:35 PM 53.2 °F - 27.9 °F 38% 30.03 in 10.0 mi NW 15.0 mph 29.9 mph N/A   Clear
4:55 PM 52.0 °F - 28.4 °F 40% 30.03 in 10.0 mi NNW 17.3 mph 27.6 mph N/A   Clear
5:15 PM 50.2 °F - 29.1 °F 44% 30.03 in 10.0 mi NNW 12.7 mph 18.4 mph N/A   Clear
5:35 PM 48.9 °F - 29.3 °F 47% 30.04 in 10.0 mi NW 11.5 mph - N/A   Clear
5:55 PM 46.4 °F 42.4 °F 29.3 °F 51% 30.05 in 10.0 mi NW 8.1 mph - N/A   Clear
6:15 PM 43.9 °F 40.5 °F 28.8 °F 55% 30.05 in 10.0 mi NW 5.8 mph - N/A   Clear
6:35 PM 41.7 °F 37.3 °F 28.4 °F 59% 30.06 in 10.0 mi WNW 6.9 mph - N/A   Clear
6:55 PM 40.1 °F 34.7 °F 28.4 °F 63% 30.06 in 10.0 mi WNW 8.1 mph - N/A   Clear
7:15 PM 40.1 °F 36.1 °F 28.4 °F 63% 30.06 in 10.0 mi NW 5.8 mph - N/A   Clear
7:35 PM 38.8 °F 33.2 °F 28.4 °F 66% 30.06 in 10.0 mi WNW 8.1 mph - N/A   Clear
7:55 PM 39.4 °F 35.2 °F 28.8 °F 66% 30.07 in 10.0 mi NW 5.8 mph - N/A   Clear
8:15 PM 36.7 °F 32.9 °F 27.5 °F 69% 30.07 in 10.0 mi WNW 4.6 mph - N/A   Clear
8:35 PM 34.7 °F 31.8 °F 27.0 °F 73% 30.07 in 10.0 mi WNW 3.5 mph - N/A   Clear
8:55 PM 33.4 °F - 26.1 °F 74% 30.07 in 10.0 mi Calm Calm - N/A   Clear
9:15 PM 31.8 °F - 26.2 °F 80% 30.07 in 10.0 mi Calm Calm - N/A   Clear
9:35 PM 30.6 °F - 25.9 °F 83% 30.08 in 10.0 mi Calm Calm - N/A   Clear
9:55 PM 30.0 °F - 26.1 °F 85% 30.08 in 10.0 mi Calm Calm - N/A   Clear
10:15 PM 31.1 °F - 26.6 °F 83% 30.08 in 10.0 mi Calm Calm - N/A   Clear
10:35 PM 37.0 °F 31.6 °F 30.0 °F 76% 30.08 in 10.0 mi WNW 6.9 mph - N/A   Clear
10:55 PM 37.0 °F 30.4 °F 30.2 °F 76% 30.09 in 10.0 mi NW 9.2 mph - N/A   Clear
11:15 PM 38.5 °F 31.6 °F 30.2 °F 72% 30.08 in 10.0 mi NW 10.4 mph - N/A   Clear
11:35 PM 38.5 °F 32.1 °F 30.6 °F 73% 30.09 in 10.0 mi NW 9.2 mph - N/A   Clear
11:55 PM 37.8 °F 31.8 °F 30.6 °F 75% 30.09 in 10.0 mi NNW 8.1 mph - N/A   Clear